Location: 5810 Zion Rd, Cleves, OH 45002, USA
(39.1922°N, 84.7113°W)
Time: 05:36:23
(UTC-05:00)

A-11 Canister half - All Passes

Search period start: 10 December 2019 00:00
Search period end: 20 December 2019 00:00
Orbit: 1526 x 1683 km, 47.3° (Epoch: 10 December)

Date Brightness Start Highest point End Pass type
(mag) Time Alt. Az. Time Alt. Az. Time Alt. Az.
10 Dec - 03:55:08 10° SSE 04:01:27 19° ESE 04:07:47 10° E visible
10 Dec - 05:55:14 10° SW 06:05:09 65° SE 06:15:09 10° ENE visible
10 Dec - 08:00:28 10° W 08:10:34 64° NNW 08:20:37 10° ENE daylight
10 Dec - 10:07:09 10° WNW 10:17:07 56° N 10:26:52 10° E daylight
10 Dec - 12:12:57 10° WNW 12:23:07 89° NE 12:32:55 10° ESE daylight
10 Dec - 14:18:56 10° WNW 14:27:25 33° SW 14:35:40 10° S daylight
11 Dec - 03:33:59 10° SSE 03:39:53 17° ESE 03:45:48 10° E visible
11 Dec - 05:33:39 10° SW 05:43:31 62° SE 05:53:28 10° ENE visible
11 Dec - 07:38:44 10° W 07:48:51 66° NNW 07:58:55 10° ENE daylight
11 Dec - 09:45:25 10° WNW 09:55:23 55° N 10:05:09 10° E daylight
11 Dec - 11:51:17 10° WNW 12:01:27 87° NNE 12:11:17 10° ESE daylight
11 Dec - 13:57:10 10° WNW 14:05:50 35° SW 14:14:16 10° SSE daylight
12 Dec - 03:12:54 10° SSE 03:18:19 16° ESE 03:23:45 10° E visible
12 Dec - 05:12:05 10° SW 05:21:52 60° SE 05:31:46 10° ENE visible
12 Dec - 07:17:01 10° WSW 07:27:08 67° NNW 07:37:15 10° ENE visible
12 Dec - 09:23:41 10° WNW 09:33:39 55° N 09:43:26 10° E daylight
12 Dec - 11:29:35 10° WNW 11:39:47 84° NNE 11:49:39 10° ESE daylight
12 Dec - 13:35:25 10° WNW 13:44:15 37° SW 13:52:51 10° SSE daylight
13 Dec - 02:51:53 10° SSE 02:56:45 15° ESE 03:01:39 10° E visible
13 Dec - 04:50:32 10° SSW 05:00:14 57° SE 05:10:04 10° ENE visible
13 Dec - 06:55:18 10° WSW 07:05:25 69° NNW 07:15:34 10° ENE visible
13 Dec - 09:01:58 10° WNW 09:11:55 55° N 09:21:43 10° E daylight
13 Dec - 11:07:53 10° WNW 11:18:06 82° NNE 11:28:00 10° ESE daylight
13 Dec - 13:13:39 10° WNW 13:22:40 40° SW 13:31:25 10° SSE daylight
14 Dec - 02:30:58 10° SSE 02:35:12 13° ESE 02:39:26 10° E visible
14 Dec - 04:28:59 10° SSW 04:38:36 54° SE 04:48:22 10° ENE visible
14 Dec - 06:33:36 10° WSW 06:43:43 70° NNW 06:53:52 10° ENE visible
14 Dec - 08:40:13 10° WNW 08:50:10 54° N 09:00:00 10° E daylight
14 Dec - 10:46:13 10° WNW 10:56:25 80° NNE 11:06:20 10° ESE daylight
14 Dec - 12:51:55 10° WNW 13:01:04 42° SW 13:09:58 10° SSE daylight
15 Dec - 02:10:13 10° SE 02:13:39 12° ESE 02:17:04 10° E visible
15 Dec - 04:07:27 10° SSW 04:16:59 52° SE 04:26:40 10° ENE visible
15 Dec - 06:11:53 10° WSW 06:22:00 72° NNW 06:32:12 10° ENE visible
15 Dec - 08:18:30 10° WNW 08:28:26 54° N 08:38:16 10° ENE daylight
15 Dec - 10:24:31 10° WNW 10:34:44 78° NNE 10:44:40 10° ESE daylight
15 Dec - 12:30:11 10° WNW 12:39:28 44° SW 12:48:29 10° SSE daylight
16 Dec - 01:49:49 10° SE 01:52:06 11° ESE 01:54:23 10° ESE visible
16 Dec - 03:45:56 10° SSW 03:55:21 49° SE 04:04:58 10° ENE visible
16 Dec - 05:50:11 10° WSW 06:00:18 74° NNW 06:10:31 10° ENE visible
16 Dec - 07:56:46 10° WNW 08:06:42 54° N 08:16:33 10° ENE daylight
16 Dec - 10:02:49 10° WNW 10:13:03 76° NNE 10:23:00 10° ESE daylight
16 Dec - 12:08:26 10° WNW 12:17:51 46° SW 12:27:01 10° SSE daylight
17 Dec - 03:24:25 10° SSW 03:33:44 47° SE 03:43:14 10° ENE visible
17 Dec - 05:28:30 10° WSW 05:38:36 76° NNW 05:48:49 10° ENE visible
17 Dec - 07:35:01 10° WNW 07:44:57 54° N 07:54:50 10° ENE daylight
17 Dec - 09:41:08 10° WNW 09:51:20 74° NNE 10:01:19 10° ESE daylight
17 Dec - 11:46:44 10° WNW 11:56:15 49° SW 12:05:31 10° SSE daylight
17 Dec - 13:57:40 10° WSW 13:59:27 11° WSW 14:01:15 10° SW daylight
18 Dec - 03:02:55 10° SSW 03:12:07 45° SE 03:21:31 10° ENE visible
18 Dec - 05:06:48 10° WSW 05:16:54 78° NNW 05:27:08 10° ENE visible
18 Dec - 07:13:17 10° WNW 07:23:13 54° N 07:33:06 10° ENE visible
18 Dec - 09:19:26 10° WNW 09:29:38 72° NNE 09:39:38 10° ESE daylight
18 Dec - 11:25:01 10° WNW 11:34:38 51° SW 11:44:00 10° SSE daylight
18 Dec - 13:34:47 10° W 13:37:54 12° WSW 13:41:01 10° SW daylight
19 Dec - 02:41:27 10° SSW 02:50:31 42° SE 02:59:46 10° ENE visible
19 Dec - 04:45:08 10° WSW 04:55:12 80° NNW 05:05:27 10° ENE visible
19 Dec - 06:51:33 10° W 07:01:28 55° N 07:11:23 10° ENE visible
19 Dec - 08:57:44 10° WNW 09:07:57 70° NNE 09:17:56 10° ESE daylight
19 Dec - 11:03:17 10° WNW 11:13:01 54° SW 11:22:29 10° SSE daylight
19 Dec - 13:12:21 10° W 13:16:22 13° WSW 13:20:20 10° SW daylight
